7 * 24
多渠道服务支持
ZHUHAI-1 03C 是珠海一号卫星星座中的高光谱卫星,主要用于遥感监测和环境评估。该卫星具有高分辨率和多光谱成像能力,可广泛应用于农业、林业、城市规划和灾害监测等领域。其发射进一步增强了珠海一号星座的数据获取能力和应用范围,为用户提供更精准、实时的遥感数据服务。
中国
(CN)
| 数据来源 | 国际轨道数据 |
| 星历时间: | 2025-10-28T23:33:29+0800 15小时前 查看轨道信息 |
| 半长轴: | 6791.195km |
| 偏心率: | 0.0015393 |
| 轨道倾角: | 97.558° |
| 近地点辐角 | 41.679° |
| 升交点赤经 | 90.497° |
| 平近点角 | 318.563° |
| 近地点: | 402.606km |
| 远地点: | 423.514km |
| 周期: | 92.828分钟 |
| 每日圈数: | 15.51256 |